sat.trackr.live / text

‹ back to catalog

STARLINK-4434

NORAD 53501 · 2022-099AN

PAYLOAD ACTIVE UNKNOWN

§ Identity

Operator
Country
US
Launch date
2022-08-12
Launch site
AFWTR
Launch vehicle
Mass (kg)
RCS (m²)

Purposes: comms

External: N2YO · Heavens-Above · Gunter

§ Orbital elements

Epoch: 2026-09-20T01:57:13.508640Z

Period
93.69 min
Inclination
97.4899°
Eccentricity
0.0000184
Mean motion
15.36968766 rev/d
Perigee alt
455.0 km
Apogee alt
455.2 km
Semi-major
6,833.2 km
B*
8.4039e-6
RAAN
30.3605°
Arg perigee
47.1171°
Mean anomaly
313.0088°
Rev number
22,581

§ Raw data

STARLINK-44341 53501U 22099AN  26263.08140635  .00000221  00000+0  84039-5 0  99952 53501  97.4899  30.3605 0000184  47.1171 313.0088 15.36968766225811

JSON: /api/v1/satellites/53501 · /tle

For live sub-satellite position, see the globe view (requires WebGL).

§ Visibility from observer

Set your observer location to see the next 7 days of passes ≥ 10°. The values pass through the URL so the page stays shareable.

No JS? Fill the form by hand. The geolocation button needs JavaScript.